Location: Unspecified
(40.7945°N, 0.0000°E)
Time: 03:40:14
(UTC+00:00)

Altair - Pass Details

Date: 24 January 2021
Orbit: 1501 x 1682 km, 47.2° (Epoch: 01 March)

Event Time Altitude Azimuth Distance (km) Brightness Sun altitude
Rises 07:01:54 0° 265° (W) 4,891 9.6 -3.4°
Reaches altitude 10° 07:05:06 10° 268° (W) 3,920 9.1 -2.9°
Maximum altitude 07:15:09 64° 350° (N) 1,832 7.8 -1.1°
Drops below altitude 10° 07:25:14 10° 71° (ENE) 3,932 10.4 0.6°
Sets 07:28:27 0° 75° (ENE) 4,908 11.0 1.1°
